QPF
0.00 0.00 0.00 0.00 0.00 0.00 0.00 0.00 0.00 0.00 0.00 0.00 0.00 0.00 0.00 0.00 0.00 0.00 0.00 0.00 0.00 0.00 0.00 0.00 0.00 0.00 0.00 0.00 0.00 0.00 0.00 0.00 0.00 0.00 0.00 0.00 0.00 0.00 0.00 0.00 0.00 0.00 0.00 0.00
0.00 0.00 0.00 0.00 0.00 0.00 0.00 0.00 0.00 0.00 0.00 0.00 0.00 0.00 0.00 0.00 0.00 0.00 0.00 0.00 0.00 0.00 0.00 0.00 0.00 0.00 0.00 0.00 0.00 0.00 0.00 0.00 0.00 0.00 0.00 0.00 0.00 0.00 0.00 0.00 0.00 0.00 0.00 0.00
0.00 0.00 0.00 0.00 0.00 0.00 0.00 0.00 0.00 0.00 0.00 0.00 0.00 0.00 0.00 0.00 0.00 0.00 0.00 0.00 0.00 0.00 0.00 0.00 0.00 0.00 0.00 0.00 0.00 0.00 0.00 0.00 0.00 0.00 0.00 0.00 0.00 0.00 0.00 0.00 0.00 0.00 0.00 0.00
0.00 0.00 0.00 0.00 0.00 0.00 0.00 0.00 0.00 0.00 0.00 0.00 0.00 0.00 0.00 0.00 0.00 0.00 0.00 0.00 0.00 0.00 0.00 0.00 0.00 0.00 0.00 0.00 0.00 0.00 0.00 0.00 0.00 0.00 0.00 0.00 0.00 0.00 0.00 0.00 0.00 0.00 0.00 0.00
0.00 0.00 0.00 0.00 0.00 0.00 0.00 0.00 0.00 0.00 0.00 0.00 0.00 0.00 0.00 0.00 0.00 0.00 0.00 0.00 0.00 0.00 0.00 0.00 0.00 0.00 0.00 0.00 0.00 0.00 0.00 0.00 0.00 0.00 0.00 0.00 0.00 0.00 0.00 0.00 0.00 0.00 0.00 0.00
0.00 0.00 0.00 0.00 0.00 0.00 0.00 0.00 0.00 0.00 0.00 0.00 0.00 0.00 0.00 0.00 0.00 0.00 0.00 0.00 0.00 0.00 0.00 0.00 0.00 0.00 0.00 0.00 0.00 0.00 0.00 0.00 0.00 0.00 0.00 0.00 0.00 0.00 0.00 0.00 0.00 0.00 0.00 0.00
0.00 0.00 0.00 0.00 0.00 0.00 0.00 0.00 0.00 0.00 0.00 0.00 0.00 0.00 0.00 0.00 0.00 0.00 0.00 0.00 0.00 0.00 0.00 0.00 0.00 0.00 0.00 0.00 0.00 0.00 0.00 0.00 0.00 0.00 0.00 0.00 0.00 0.00 0.00 0.00 0.00 0.00 0.00 0.00
0.00 0.00 0.00 0.00 0.00 0.00 0.00 0.00 0.00 0.00 0.00 0.00 0.00 0.00 0.00 0.00 0.00 0.00 0.00 0.00 0.00 0.00 0.00 0.00 0.00 0.00 0.00 0.00 0.00 0.00 0.00 0.00 0.00 0.00 0.00 0.00 0.00 0.00 0.00 0.00 0.00 0.00 0.00 0.00
0.00 0.00 0.00 0.00 0.00 0.00 0.00 0.00 0.00 0.00 0.00 0.00 0.00 0.00 0.00 0.00 0.00 0.00 0.00 0.00 0.00 0.00 0.00 0.00 0.00 0.00 0.00 0.00 0.00 0.00 0.00 0.00 0.00 0.00 0.00 0.00 0.00 0.00 0.00 0.00 0.00 0.00 0.00 0.00
0.00 0.00 0.00 0.00 0.00 0.00 0.00 0.00 0.00 0.00 0.00 0.00 0.00 0.00 0.00 0.00 0.00 0.00 0.00 0.00 0.00 0.00 0.00 0.00 0.00 0.00 0.00 0.00 0.00 0.00 0.00 0.00 0.00 0.00 0.00 0.00 0.00 0.00 0.00 0.00 0.00 0.00 0.00 0.00
0.00 0.00 0.00 0.00 0.00 0.00 0.00 0.00 0.00 0.00 0.00 0.00 0.00 0.00 0.00 0.00 0.00 0.00 0.00 0.00 0.00 0.00 0.00 0.00 0.00 0.00 0.00 0.00 0.00 0.00 0.00 0.00 0.00 0.00 0.00 0.00 0.00 0.00 0.00 0.00 0.00 0.00 0.00 0.00
0.00 0.00 0.00 0.00 0.00 0.00 0.00 0.00 0.00 0.00 0.00 0.00 0.00 0.00 0.00 0.00 0.00 0.00 0.00 0.00 0.00 0.00 0.00 0.00 0.00 0.00 0.00 0.00 0.00 0.00 0.00 0.00 0.00 0.00 0.00 0.00 0.00 0.00 0.00 0.00 0.00 0.00 0.00 0.00
0.00 0.00 0.00 0.00 0.00 0.00 0.00 0.00 0.00 0.00 0.00 0.00 0.00 0.00 0.00 0.00 0.00 0.00 0.00 0.00 0.00 0.00 0.00 0.00 0.00 0.00 0.00 0.00 0.00 0.00 0.00 0.00 0.00 0.00 0.00 0.00 0.00 0.00 0.00 0.00 0.00 0.00 0.00 0.00
0.00 0.00 0.00 0.00 0.00 0.00 0.00 0.00 0.00 0.00 0.00 0.00 0.00 0.00 0.00 0.00 0.00 0.00 0.00 0.00 0.00 0.00 0.00 0.00 0.00 0.00 0.00 0.00 0.00 0.00 0.00 0.00 0.00 0.00 0.00 0.00 0.00 0.00 0.00 0.00 0.00 0.00 0.00 0.00
0.00 0.00 0.00 0.00 0.00 0.00 0.00 0.00 0.00 0.00 0.00 0.00 0.00 0.00 0.00 0.00 0.00 0.00 0.00 0.00 0.00 0.00 0.00 0.00 0.00 0.00 0.00 0.00 0.00 0.00 0.00 0.00 0.00 0.00 0.00 0.00 0.00 0.00 0.00 0.00 0.00 0.00 0.00 0.00
0.00 0.00 0.00 0.00 0.00 0.00 0.00 0.00 0.00 0.00 0.00 0.00 0.00 0.00 0.00 0.00 0.00 0.00 0.00 0.00 0.00 0.00 0.00 0.00 0.00 0.00 0.00 0.00 0.00 0.00 0.00 0.00 0.00 0.00 0.00 0.00 0.00 0.00 0.00 0.00 0.00 0.00 0.00 0.00
0.00 0.00 0.00 0.00 0.00 0.00 0.00 0.00 0.00 0.00 0.00 0.00 0.00 0.00 0.00 0.00 0.00 0.00 0.00 0.00 0.00 0.00 0.00 0.00 0.00 0.00 0.00 0.00 0.00 0.00 0.00 0.00 0.00 0.00 0.00 0.00 0.00 0.00 0.00 0.00 0.00 0.00 0.00 0.00
0.00 0.00 0.00 0.00 0.00 0.00 0.00 0.00 0.00 0.00 0.00 0.00 0.00 0.00 0.00 0.00 0.00 0.00 0.00 0.00 0.00 0.00 0.00 0.00 0.00 0.00 0.00 0.00 0.00 0.00 0.00 0.00 0.00 0.00 0.00 0.00 0.00 0.00 0.00 0.00 0.00 0.00 0.00 0.00
0.00 0.00 0.00 0.00 0.00 0.00 0.00 0.00 0.00 0.00 0.00 0.00 0.00 0.00 0.00 0.00 0.00 0.00 0.00 0.00 0.00 0.00 0.00 0.00 0.00 0.00 0.00 0.00 0.00 0.00 0.00 0.00 0.00 0.00 0.00 0.00 0.00 0.00 0.00 0.00 0.00 0.00 0.00 0.00
0.00 0.00 0.00 0.00 0.00 0.00 0.00 0.00 0.00 0.00 0.00 0.00 0.00 0.00 0.00 0.00 0.00 0.00 0.00 0.00 0.00 0.00 0.00 0.00 0.00 0.00 0.00 0.00 0.00 0.00 0.00 0.00 0.00 0.00 0.00 0.00 0.00 0.00 0.00 0.00 0.00 0.00 0.00 0.00
0.00 0.00 0.00 0.00 0.00 0.00 0.00 0.00 0.00 0.00 0.00 0.00 0.00 0.00 0.00 0.00 0.00 0.00 0.00 0.00 0.00 0.00 0.00 0.00 0.00 0.00 0.00 0.00 0.00 0.00 0.00 0.00 0.00 0.00 0.00 0.00 0.00 0.00 0.00 0.00 0.00 0.00 0.00 0.00
0.00 0.00 0.00 0.00 0.00 0.00 0.00 0.00 0.00 0.00 0.00 0.00 0.00 0.00 0.00 0.00 0.00 0.00 0.00 0.00 0.00 0.00 0.00 0.00 0.00 0.00 0.00 0.00 0.00 0.00 0.00 0.00 0.00 0.00 0.00 0.00 0.00 0.00 0.00 0.00 0.00 0.00 0.00 0.00
0.00 0.00 0.00 0.00 0.00 0.00 0.00 0.00 0.00 0.00 0.00 0.00 0.00 0.00 0.00 0.00 0.00 0.00 0.00 0.00 0.00 0.00 0.00 0.00 0.00 0.00 0.00 0.00 0.00 0.00 0.00 0.00 0.00 0.00 0.00 0.00 0.00 0.00 0.00 0.00 0.00 0.00 0.00 0.00
0.00 0.00 0.00 0.00 0.00 0.00 0.00 0.00 0.00 0.00 0.00 0.00 0.00 0.00 0.00 0.00 0.00 0.00 0.00 0.00 0.00 0.00 0.00 0.00 0.00 0.00 0.00 0.00 0.00 0.00 0.00 0.00 0.00 0.00 0.00 0.00 0.00 0.00 0.00 0.00 0.00 0.00 0.00 0.00
0.00 0.00 0.00 0.00 0.00 0.00 0.00 0.00 0.00 0.00 0.00 0.00 0.00 0.00 0.00 0.00 0.00 0.00 0.00 0.00 0.00 0.00 0.00 0.00 0.00 0.00 0.00 0.00 0.00 0.00 0.00 0.00 0.00 0.00 0.00 0.00 0.00 0.00 0.00 0.00 0.00 0.00 0.00 0.01
0.00 0.00 0.00 0.00 0.00 0.00 0.00 0.00 0.00 0.00 0.00 0.00 0.00 0.00 0.00 0.00 0.00 0.00 0.00 0.00 0.00 0.00 0.00 0.00 0.00 0.00 0.00 0.00 0.00 0.00 0.00 0.00 0.00 0.00 0.00 0.00 0.00 0.00 0.00 0.00 0.00 0.00 0.00 0.01
MSLP
1018.14 1018.68 1019.07 1019.32 1019.43 1019.42 1019.32 1019.14 1018.90 1018.60 1018.25 1017.84 1017.38 1016.86 1016.31 1015.73 1015.15 1014.57 1014.01 1013.47 1012.99 1012.56 1012.21 1011.96 1011.84 1011.85 1012.02 1012.34 1012.80 1013.37 1014.02 1014.71 1015.39 1016.03 1016.61 1017.12 1017.57 1017.96 1018.32 1018.67 1019.02 1019.39 1019.77 1020.17
1018.30 1018.68 1018.92 1019.05 1019.09 1019.08 1019.03 1018.96 1018.86 1018.72 1018.52 1018.23 1017.84 1017.35 1016.79 1016.17 1015.53 1014.89 1014.28 1013.73 1013.24 1012.82 1012.47 1012.21 1012.04 1011.98 1012.04 1012.24 1012.57 1013.03 1013.59 1014.21 1014.86 1015.49 1016.08 1016.60 1017.05 1017.43 1017.76 1018.05 1018.33 1018.63 1018.94 1019.30
1018.26 1018.45 1018.53 1018.55 1018.54 1018.55 1018.59 1018.67 1018.75 1018.78 1018.74 1018.57 1018.25 1017.78 1017.20 1016.53 1015.83 1015.15 1014.53 1013.98 1013.51 1013.12 1012.81 1012.56 1012.37 1012.26 1012.24 1012.32 1012.53 1012.86 1013.31 1013.85 1014.44 1015.05 1015.63 1016.14 1016.58 1016.93 1017.21 1017.44 1017.64 1017.85 1018.10 1018.39
1018.06 1018.07 1018.01 1017.95 1017.93 1018.00 1018.16 1018.40 1018.66 1018.88 1018.97 1018.90 1018.63 1018.16 1017.53 1016.80 1016.04 1015.32 1014.68 1014.15 1013.73 1013.40 1013.15 1012.95 1012.78 1012.64 1012.56 1012.55 1012.64 1012.84 1013.18 1013.62 1014.14 1014.69 1015.23 1015.71 1016.12 1016.42 1016.64 1016.79 1016.92 1017.04 1017.20 1017.41
1017.80 1017.66 1017.50 1017.40 1017.41 1017.58 1017.88 1018.29 1018.73 1019.09 1019.30 1019.28 1019.01 1018.50 1017.80 1016.99 1016.16 1015.38 1014.73 1014.23 1013.87 1013.63 1013.47 1013.34 1013.21 1013.09 1012.96 1012.88 1012.87 1012.95 1013.17 1013.50 1013.92 1014.39 1014.86 1015.28 1015.63 1015.88 1016.02 1016.10 1016.13 1016.16 1016.23 1016.37
1017.54 1017.31 1017.11 1017.03 1017.11 1017.39 1017.85 1018.42 1019.00 1019.47 1019.74 1019.73 1019.42 1018.83 1018.03 1017.11 1016.19 1015.37 1014.71 1014.24 1013.95 1013.81 1013.75 1013.71 1013.65 1013.54 1013.41 1013.27 1013.17 1013.14 1013.23 1013.44 1013.75 1014.11 1014.49 1014.84 1015.11 1015.27 1015.34 1015.33 1015.28 1015.23 1015.22 1015.27
1017.33 1017.07 1016.89 1016.88 1017.07 1017.48 1018.08 1018.77 1019.45 1019.98 1020.26 1020.21 1019.82 1019.12 1018.21 1017.18 1016.18 1015.31 1014.65 1014.22 1014.00 1013.95 1013.99 1014.04 1014.05 1013.98 1013.84 1013.66 1013.49 1013.36 1013.33 1013.42 1013.60 1013.85 1014.12 1014.36 1014.54 1014.62 1014.61 1014.53 1014.40 1014.27 1014.18 1014.16
1017.15 1016.94 1016.84 1016.92 1017.24 1017.78 1018.49 1019.27 1020.00 1020.53 1020.77 1020.65 1020.16 1019.35 1018.32 1017.21 1016.14 1015.24 1014.59 1014.20 1014.06 1014.09 1014.22 1014.35 1014.41 1014.37 1014.23 1014.02 1013.78 1013.56 1013.43 1013.39 1013.45 1013.58 1013.74 1013.88 1013.97 1013.96 1013.88 1013.72 1013.53 1013.33 1013.18 1013.09
1017.01 1016.88 1016.89 1017.10 1017.53 1018.17 1018.96 1019.77 1020.49 1020.98 1021.15 1020.93 1020.35 1019.44 1018.34 1017.17 1016.08 1015.19 1014.56 1014.22 1014.13 1014.23 1014.42 1014.60 1014.71 1014.68 1014.54 1014.29 1014.00 1013.71 1013.48 1013.34 1013.29 1013.32 1013.37 1013.42 1013.41 1013.33 1013.18 1012.96 1012.71 1012.46 1012.26 1012.11
1016.86 1016.85 1016.98 1017.30 1017.82 1018.52 1019.32 1020.12 1020.78 1021.19 1021.26 1020.96 1020.30 1019.35 1018.22 1017.06 1016.00 1015.15 1014.57 1014.29 1014.25 1014.39 1014.61 1014.81 1014.92 1014.89 1014.73 1014.45 1014.12 1013.78 1013.49 1013.28 1013.15 1013.08 1013.05 1013.01 1012.93 1012.79 1012.57 1012.30 1012.00 1011.70 1011.45 1011.25
1016.71 1016.82 1017.05 1017.45 1018.02 1018.72 1019.47 1020.19 1020.75 1021.05 1021.03 1020.66 1019.97 1019.03 1017.95 1016.85 1015.88 1015.12 1014.62 1014.39 1014.39 1014.54 1014.75 1014.94 1015.02 1014.97 1014.79 1014.49 1014.14 1013.78 1013.46 1013.20 1013.02 1012.90 1012.80 1012.70 1012.55 1012.35 1012.08 1011.75 1011.41 1011.07 1010.77 1010.52
1016.59 1016.79 1017.10 1017.53 1018.09 1018.72 1019.37 1019.96 1020.38 1020.57 1020.46 1020.06 1019.38 1018.51 1017.53 1016.58 1015.74 1015.10 1014.69 1014.52 1014.53 1014.67 1014.84 1014.98 1015.01 1014.93 1014.72 1014.42 1014.06 1013.71 1013.39 1013.13 1012.93 1012.78 1012.64 1012.48 1012.28 1012.02 1011.69 1011.33 1010.93 1010.55 1010.20 1009.90
1016.54 1016.81 1017.15 1017.57 1018.05 1018.57 1019.07 1019.49 1019.75 1019.82 1019.64 1019.23 1018.61 1017.85 1017.04 1016.25 1015.58 1015.08 1014.77 1014.65 1014.66 1014.76 1014.87 1014.93 1014.90 1014.77 1014.54 1014.24 1013.92 1013.59 1013.31 1013.07 1012.88 1012.72 1012.55 1012.35 1012.09 1011.78 1011.39 1010.97 1010.53 1010.09 1009.69 1009.33
1016.62 1016.93 1017.26 1017.61 1017.98 1018.33 1018.65 1018.88 1018.98 1018.93 1018.70 1018.30 1017.77 1017.16 1016.53 1015.94 1015.45 1015.09 1014.87 1014.77 1014.76 1014.79 1014.82 1014.80 1014.70 1014.52 1014.28 1014.00 1013.72 1013.45 1013.21 1013.01 1012.84 1012.68 1012.48 1012.24 1011.94 1011.56 1011.12 1010.64 1010.14 1009.65 1009.19 1008.78
1016.86 1017.18 1017.47 1017.72 1017.94 1018.12 1018.24 1018.27 1018.21 1018.05 1017.78 1017.42 1017.00 1016.54 1016.09 1015.69 1015.36 1015.12 1014.97 1014.88 1014.83 1014.78 1014.71 1014.60 1014.43 1014.21 1013.97 1013.72 1013.48 1013.27 1013.09 1012.94 1012.79 1012.62 1012.40 1012.11 1011.75 1011.31 1010.80 1010.26 1009.71 1009.18 1008.67 1008.21
1017.24 1017.54 1017.77 1017.92 1017.99 1017.98 1017.91 1017.76 1017.56 1017.31 1017.02 1016.70 1016.38 1016.07 1015.78 1015.54 1015.35 1015.20 1015.08 1014.97 1014.86 1014.73 1014.56 1014.36 1014.12 1013.88 1013.63 1013.41 1013.22 1013.07 1012.94 1012.82 1012.67 1012.48 1012.22 1011.88 1011.46 1010.95 1010.39 1009.80 1009.20 1008.63 1008.09 1007.58
1017.69 1017.97 1018.13 1018.17 1018.09 1017.93 1017.69 1017.40 1017.09 1016.77 1016.47 1016.21 1015.97 1015.79 1015.64 1015.52 1015.42 1015.33 1015.21 1015.07 1014.88 1014.66 1014.40 1014.11 1013.82 1013.54 1013.30 1013.10 1012.95 1012.83 1012.72 1012.61 1012.45 1012.22 1011.91 1011.51 1011.02 1010.45 1009.84 1009.21 1008.59 1007.99 1007.43 1006.91
1018.10 1018.34 1018.44 1018.39 1018.20 1017.92 1017.56 1017.17 1016.79 1016.44 1016.16 1015.94 1015.79 1015.70 1015.65 1015.62 1015.57 1015.49 1015.36 1015.16 1014.89 1014.58 1014.23 1013.88 1013.53 1013.23 1012.99 1012.80 1012.65 1012.54 1012.43 1012.29 1012.09 1011.81 1011.43 1010.96 1010.41 1009.79 1009.15 1008.50 1007.87 1007.27 1006.71 1006.19
1018.35 1018.56 1018.60 1018.48 1018.22 1017.86 1017.44 1017.01 1016.60 1016.27 1016.02 1015.86 1015.78 1015.77 1015.78 1015.80 1015.77 1015.67 1015.50 1015.24 1014.90 1014.51 1014.09 1013.68 1013.29 1012.97 1012.70 1012.50 1012.34 1012.21 1012.06 1011.86 1011.60 1011.24 1010.79 1010.25 1009.64 1008.99 1008.33 1007.68 1007.06 1006.49 1005.95 1005.44
1018.37 1018.53 1018.53 1018.37 1018.08 1017.69 1017.27 1016.84 1016.47 1016.18 1015.99 1015.89 1015.88 1015.92 1015.98 1016.01 1015.97 1015.85 1015.63 1015.32 1014.92 1014.46 1013.99 1013.53 1013.11 1012.75 1012.45 1012.22 1012.02 1011.83 1011.61 1011.34 1010.98 1010.54 1010.01 1009.41 1008.77 1008.10 1007.44 1006.80 1006.22 1005.67 1005.16 1004.68
1018.13 1018.25 1018.21 1018.03 1017.74 1017.38 1017.00 1016.64 1016.33 1016.12 1016.01 1015.99 1016.03 1016.11 1016.19 1016.21 1016.16 1016.01 1015.74 1015.37 1014.92 1014.42 1013.91 1013.41 1012.96 1012.57 1012.24 1011.95 1011.69 1011.42 1011.12 1010.75 1010.30 1009.77 1009.17 1008.52 1007.84 1007.17 1006.52 1005.92 1005.36 1004.85 1004.37 1003.91
1017.68 1017.75 1017.68 1017.51 1017.25 1016.95 1016.65 1016.39 1016.19 1016.07 1016.05 1016.10 1016.19 1016.30 1016.38 1016.40 1016.31 1016.12 1015.81 1015.40 1014.92 1014.39 1013.85 1013.33 1012.85 1012.43 1012.05 1011.70 1011.36 1011.01 1010.60 1010.14 1009.60 1008.99 1008.33 1007.64 1006.95 1006.27 1005.64 1005.06 1004.53 1004.04 1003.58 1003.13
1017.13 1017.13 1017.05 1016.89 1016.69 1016.48 1016.28 1016.13 1016.05 1016.05 1016.11 1016.22 1016.36 1016.48 1016.55 1016.53 1016.42 1016.18 1015.84 1015.40 1014.89 1014.35 1013.79 1013.26 1012.76 1012.30 1011.88 1011.47 1011.05 1010.60 1010.11 1009.55 1008.93 1008.25 1007.55 1006.82 1006.12 1005.45 1004.82 1004.26 1003.74 1003.26 1002.80 1002.34
1016.59 1016.53 1016.43 1016.31 1016.17 1016.05 1015.97 1015.94 1015.98 1016.07 1016.21 1016.37 1016.53 1016.64 1016.69 1016.63 1016.47 1016.19 1015.81 1015.35 1014.83 1014.27 1013.72 1013.18 1012.66 1012.17 1011.70 1011.23 1010.74 1010.21 1009.64 1009.00 1008.32 1007.59 1006.85 1006.11 1005.39 1004.72 1004.09 1003.52 1002.99 1002.49 1002.01 1001.52
1016.16 1016.05 1015.95 1015.86 1015.79 1015.77 1015.79 1015.87 1016.01 1016.18 1016.37 1016.56 1016.71 1016.79 1016.79 1016.68 1016.46 1016.14 1015.72 1015.24 1014.71 1014.15 1013.59 1013.05 1012.52 1012.01 1011.49 1010.97 1010.42 1009.83 1009.19 1008.50 1007.77 1007.02 1006.25 1005.49 1004.77 1004.08 1003.44 1002.84 1002.28 1001.74 1001.20 1000.66
1015.90 1015.77 1015.66 1015.60 1015.60 1015.66 1015.78 1015.95 1016.15 1016.37 1016.58 1016.76 1016.88 1016.91 1016.84 1016.67 1016.39 1016.01 1015.56 1015.05 1014.51 1013.95 1013.40 1012.85 1012.31 1011.77 1011.23 1010.67 1010.08 1009.44 1008.76 1008.03 1007.27 1006.50 1005.72 1004.96 1004.22 1003.51 1002.84 1002.20 1001.59 1000.98 1000.38 999.77
Thickness
5682 5669 5663 5667 5669 5671 5670 5666 5661 5668 5682 5682 5678 5680 5691 5697 5696 5694 5693 5694 5698 5702 5707 5710 5707 5700 5693 5687 5682 5677 5671 5665 5658 5651 5645 5640 5638 5634 5630 5626 5622 5617 5611 5605
5665 5661 5673 5676 5675 5671 5669 5664 5660 5668 5677 5675 5673 5675 5685 5691 5691 5688 5688 5688 5690 5694 5698 5699 5697 5692 5688 5683 5678 5673 5669 5663 5657 5652 5647 5640 5635 5630 5626 5621 5617 5612 5607 5601
5659 5670 5682 5677 5674 5670 5667 5662 5661 5662 5664 5668 5666 5669 5677 5684 5684 5682 5682 5683 5684 5686 5685 5687 5686 5684 5679 5676 5672 5670 5665 5660 5654 5648 5640 5632 5625 5622 5618 5614 5611 5607 5602 5597
5661 5672 5677 5674 5670 5669 5657 5668 5666 5663 5653 5646 5651 5642 5661 5673 5674 5675 5674 5673 5675 5676 5677 5676 5676 5675 5672 5670 5667 5662 5658 5653 5647 5640 5633 5627 5623 5620 5619 5613 5608 5603 5597 5592
5663 5674 5674 5669 5670 5670 5664 5667 5662 5659 5652 5642 5643 5637 5647 5663 5665 5667 5668 5669 5669 5668 5667 5667 5666 5665 5664 5661 5658 5654 5649 5644 5639 5633 5628 5622 5620 5618 5613 5606 5601 5596 5592 5587
5663 5674 5675 5671 5672 5670 5665 5657 5651 5642 5635 5634 5645 5635 5642 5651 5662 5662 5663 5662 5661 5660 5658 5657 5656 5655 5653 5651 5647 5644 5640 5635 5631 5625 5620 5615 5612 5608 5603 5597 5593 5590 5585 5581
5660 5665 5670 5671 5663 5661 5654 5639 5628 5631 5623 5630 5641 5638 5641 5660 5665 5661 5657 5654 5652 5650 5648 5647 5646 5644 5642 5641 5638 5634 5630 5626 5622 5616 5611 5607 5604 5600 5595 5592 5587 5583 5579 5575
5646 5647 5659 5662 5659 5651 5649 5637 5621 5618 5613 5618 5631 5632 5646 5657 5660 5656 5651 5647 5645 5642 5639 5639 5637 5634 5632 5632 5629 5625 5621 5617 5613 5608 5604 5600 5595 5591 5588 5585 5581 5577 5574 5571
5641 5645 5658 5658 5657 5652 5644 5632 5629 5614 5611 5607 5616 5628 5643 5650 5647 5644 5641 5639 5636 5634 5633 5631 5629 5627 5624 5622 5619 5616 5612 5609 5605 5601 5596 5591 5587 5583 5580 5577 5573 5569 5566 5563
5651 5644 5650 5649 5649 5645 5642 5630 5614 5608 5600 5596 5605 5616 5627 5638 5636 5634 5632 5631 5629 5627 5625 5623 5620 5617 5614 5612 5608 5606 5602 5599 5596 5592 5587 5584 5579 5575 5571 5567 5563 5560 5557 5553
5652 5636 5636 5637 5634 5633 5627 5624 5616 5602 5594 5587 5589 5609 5634 5637 5633 5628 5626 5624 5621 5619 5616 5613 5610 5608 5604 5601 5598 5595 5592 5589 5585 5582 5578 5573 5569 5564 5560 5555 5552 5549 5545 5541
5640 5624 5620 5626 5635 5634 5627 5622 5610 5600 5595 5587 5580 5605 5636 5632 5628 5625 5620 5618 5614 5611 5608 5604 5600 5597 5593 5589 5586 5583 5580 5577 5574 5570 5565 5560 5556 5551 5546 5542 5539 5536 5532 5528
5632 5617 5610 5616 5621 5625 5623 5620 5612 5603 5592 5581 5577 5603 5628 5621 5620 5618 5614 5609 5605 5602 5599 5593 5589 5584 5581 5577 5574 5571 5568 5564 5561 5557 5551 5546 5541 5536 5532 5529 5525 5521 5517 5513
5627 5613 5607 5607 5610 5614 5614 5614 5610 5598 5583 5580 5588 5605 5617 5615 5612 5608 5604 5600 5595 5591 5587 5583 5577 5572 5568 5565 5562 5559 5555 5551 5547 5542 5536 5531 5526 5522 5518 5514 5509 5505 5501 5497
5618 5606 5605 5607 5609 5606 5605 5605 5603 5595 5592 5588 5598 5601 5611 5610 5605 5599 5595 5590 5586 5581 5577 5573 5566 5561 5557 5554 5550 5546 5542 5537 5531 5525 5520 5515 5511 5506 5501 5497 5493 5488 5484 5480
5605 5600 5599 5600 5603 5598 5598 5606 5603 5599 5596 5593 5596 5599 5605 5600 5594 5589 5584 5579 5574 5569 5565 5561 5557 5551 5546 5541 5537 5532 5526 5521 5514 5507 5502 5498 5493 5488 5483 5479 5475 5471 5467 5463
5593 5589 5584 5579 5586 5586 5588 5603 5601 5598 5598 5594 5590 5593 5592 5588 5585 5580 5574 5568 5562 5557 5553 5548 5543 5538 5532 5527 5522 5515 5509 5503 5495 5489 5484 5479 5474 5469 5465 5461 5457 5453 5450 5447
5588 5580 5570 5564 5573 5568 5596 5605 5601 5597 5594 5592 5588 5583 5581 5577 5573 5569 5563 5556 5549 5544 5540 5534 5528 5523 5518 5512 5505 5498 5490 5483 5477 5471 5465 5460 5455 5451 5447 5443 5439 5436 5434 5431
5586 5577 5559 5549 5554 5565 5586 5595 5596 5591 5584 5580 5575 5570 5566 5562 5556 5550 5550 5543 5536 5531 5526 5520 5514 5508 5501 5494 5487 5479 5472 5465 5458 5453 5448 5443 5437 5434 5431 5427 5424 5421 5419 5418
5570 5570 5554 5540 5546 5553 5579 5589 5590 5584 5570 5565 5561 5556 5551 5546 5531 5532 5536 5530 5524 5519 5513 5507 5499 5491 5483 5476 5468 5459 5453 5447 5442 5438 5433 5428 5422 5418 5416 5414 5411 5409 5406 5405
5555 5549 5543 5534 5533 5552 5574 5578 5579 5564 5559 5553 5549 5544 5538 5529 5522 5521 5518 5513 5508 5502 5496 5490 5481 5472 5464 5457 5449 5442 5437 5432 5428 5424 5419 5414 5409 5404 5402 5401 5399 5396 5394 5394
5555 5539 5531 5524 5526 5544 5568 5568 5558 5550 5545 5541 5536 5531 5525 5517 5513 5508 5503 5498 5492 5486 5480 5473 5464 5456 5447 5438 5430 5427 5423 5420 5415 5411 5406 5402 5398 5393 5391 5389 5388 5385 5383 5383
5554 5556 5546 5545 5553 5554 5554 5547 5542 5538 5532 5528 5520 5515 5509 5503 5497 5493 5488 5482 5476 5470 5462 5455 5447 5440 5433 5423 5414 5410 5410 5406 5402 5399 5395 5391 5388 5384 5380 5378 5378 5377 5375 5374
5553 5551 5542 5539 5545 5543 5535 5531 5528 5523 5518 5513 5507 5501 5496 5489 5483 5477 5471 5466 5459 5453 5445 5438 5430 5425 5421 5414 5405 5398 5395 5392 5389 5387 5384 5381 5378 5377 5374 5370 5368 5367 5366 5365
5544 5540 5532 5531 5533 5526 5521 5517 5513 5509 5504 5499 5494 5489 5482 5476 5469 5464 5457 5450 5443 5436 5429 5421 5413 5409 5406 5403 5397 5390 5384 5380 5378 5376 5373 5371 5368 5367 5367 5365 5362 5361 5360 5357
5526 5526 5522 5522 5521 5515 5511 5508 5503 5498 5493 5488 5482 5476 5469 5462 5455 5449 5441 5434 5427 5420 5413 5407 5401 5396 5394 5391 5386 5381 5375 5370 5367 5366 5365 5363 5361 5360 5359 5359 5361 5360 5357 5358